Regional Weather Roundup
Issued by NWS

Home | Current Version | Previous Version | Text Only | Print | Product List | Glossary Off
Versions: 1 2 3 4 5 6 7 8 9 10 11 12 13 14 15 16 17 18 19 20 21 22 23 24 25 26 27 28 29 30 31 32 33 34 35 36 37 38 39 40 41 42 43 44 45 46 47 48 49 50

000
ASUS43 KLOT 180310
RWRIL

ILLINOIS REGIONAL WEATHER ROUNDUP
NATIONAL WEATHER SERVICE CHICAGO/ROMEOVILLE IL
900 PM CST WED DEC 17 2014

NOTE: "FAIR" INDICATES FEW OR NO CLOUDS BELOW 12,000 FEET WITH NO
SIGNIFICANT WEATHER AND/OR OBSTRUCTIONS TO VISIBILITY.

* THESE STATIONS ARE NOT UNDER NWS QUALITY CONTROL. THEY ALSO MAY NOT
  REPORT WEATHER SUCH AS PRECIPITATION OR FOG.

ILZ001-002-007-009-015-016-024-180400-
NORTHWEST ILLINOIS

CITY           SKY/WX    TMP DP  RH WIND       PRES   REMARKS
MOLINE         CLEAR     19  14  81 CALM      30.30S
STERLING*      CLEAR     19  14  79 CALM      30.30R
SAVANNA*       CLEAR     18  15  88 E3        30.29S
$$

ILZ003-004-008-010-011-017-018-180400-
NORTH CENTRAL ILLINOIS

CITY           SKY/WX    TMP DP  RH WIND       PRES   REMARKS
ROCKFORD       CLOUDY    23  15  71 N9        30.28F WCI  13
FREEPORT*      CLOUDY    21  16  79 N8        30.28F WCI  12
ROCHELLE*      CLOUDY    22  16  79 N7        30.28S WCI  13
DE KALB*       CLOUDY    22  16  77 NW5       30.27S WCI  15
PERU*          CLEAR     21  17  85 CALM      30.31R
$$

ILZ005-006-012>014-019>023-180400-
NORTHEAST ILLINOIS

CITY           SKY/WX    TMP DP  RH WIND       PRES   REMARKS
CHICAGO-OHARE  MOCLDY    25  15  66 N10       30.25F WCI  15
CHICAGO-MIDWAY PTCLDY    27  17  66 NW9       30.26F WCI  18
AURORA         CLOUDY    25  17  72 NW8       30.28S WCI  16
LANSING*       MOCLDY    25  18  73 W5        30.27S WCI  19
JOLIET*        CLOUDY    24  16  74 CALM      30.29S
WAUKEGAN       MOCLDY    22  14  71 NW7       30.26R WCI  13
DUPAGE AIRPORT CLOUDY    24  16  71 NW7       30.25F WCI  16
KANKAKEE*      CLOUDY    26  20  78 W7        30.29S WCI  19
WHEELING       CLOUDY    25  15  66 NW7       30.28F WCI  17
MORRIS*        CLOUDY    25  20  82 N3        30.29R
ROMEOVILLE*    CLOUDY    24  18  76 W6        30.28R WCI  17
NORTHERLY ISL    N/A     26  17  68 NW6         N/A  WCI  20
$$

LMZ740>746-180400-
SOUTHERN LAKE MICHIGAN

STATION/POSITION SKY/WX   TEMP    WIND        PRES    VSBY  WAVE
                          AIR SEA DIR/SP/G                  HT/PER
                          (F)     (DEG/KT/KT) (MB)    (MI)  (FT/S)
WAUKEGAN HARBOR            24     330/ 11/ 16   N/A
HARRISON CRIB              25     320/ 12/ 16   N/A
BURNHAM HARBOR             26     310/  7/ 10   N/A
CALUMET HARBOR             25     310/  7/ 11 1023.4F
$$

ILZ025>027-034>036-040-047-049-050-058-095>099-180400-
WEST-CENTRAL ILLINOIS

CITY           SKY/WX    TMP DP  RH WIND       PRES   REMARKS
QUINCY         CLOUDY    23  19  85 CALM      30.30R
GALESBURG*     PTCLDY    18  16  92 CALM      30.30S
MACOMB*        PTCLDY    21  20  94 N5        30.32R WCI  15
JACKSONVILLE*  PTCLDY    25  21  85 CALM      30.32R
PITTSFIELD*    MOCLDY    26  22  82 CALM      30.32R
$$

ILZ028>032-037-038-041>044-048-051>054-059>061-180400-
CENTRAL ILLINOIS

CITY           SKY/WX    TMP DP  RH WIND       PRES   REMARKS
PONTIAC        MOCLDY    25  20  82 NW3       30.30S
BLOOMINGTON    CLOUDY    25  21  84 W3        30.29S
DECATUR        CLOUDY    25  19  78 NE5       30.31S WCI  19
PEORIA         CLEAR     22  18  85 CALM      30.30R
LACON*         CLEAR     19  16  86 CALM      30.31R
LINCOLN*       CLEAR     22  19  89 CALM      30.31S
SPRINGFIELD    CLEAR     22  18  85 S3        30.32R
TAYLORVILLE    CLEAR     23  19  86 NE5       30.31S WCI  17
$$

ILZ033-039-045-046-055>057-062-063-180400-
EAST-CENTRAL ILLINOIS

CITY           SKY/WX    TMP DP  RH WIND       PRES   REMARKS
CHAMPAIGN      CLOUDY    25  19  78 CALM      30.29S
DANVILLE*      CLOUDY    26  20  78 N7        30.26S WCI  18
RANTOUL*       CLOUDY    28  20  73 NW6       30.29R WCI  21
MATTOON        CLOUDY    23  18  81 N7        30.29F WCI  15
PARIS*         CLOUDY    25  20  83 CALM      30.32S
$$

ILZ079-100>102-180400-
SOUTHWEST ILLINOIS

CITY           SKY/WX    TMP DP  RH WIND       PRES   REMARKS
ALTON          CLEAR     28  25  86 NE6       30.30S WCI  22
BELLEVILLE     MOCLDY    31  28  89 E3        30.30R
CAHOKIA*       MOCLDY    32  26  78 NE7       30.30R WCI  26
SPARTA*        CLOUDY    33  28  84 NE3       30.30R
$$

ILZ064>066-069>071-074>076-080>082-084>086-088>090-092>094-180400-
SOUTH-CENTRAL ILLINOIS

CITY           SKY/WX    TMP DP  RH WIND       PRES   REMARKS
CARBONDALE     CLOUDY    32  26  78 NE5       30.28S WCI  27
CAIRO*         CLOUDY    39  32  75 NE5       30.27S
EFFINGHAM*     CLOUDY    28  21  77 CALM      30.32R
MARION         CLOUDY    32  28  86 CALM      30.29R
MT. VERNON     PTCLDY    28  21  74 NE7       30.29S WCI  21
CENTRALIA*     CLEAR     28  24  83 NE5       30.29S WCI  23
SALEM*         CLEAR     30  25  84 CALM      30.30S
METROPOLIS*    CLOUDY    35  30  83 CALM      30.27S
$$

ILZ067-068-072-073-078-083-087-091-180400-
SOUTHEAST ILLINOIS

CITY           SKY/WX    TMP DP  RH WIND       PRES   REMARKS
LAWRENCEVILLE  MOCLDY    28  22  78 N7        30.31S WCI  21
FLORA*         MOCLDY    27  24  89 CALM      30.31R
FAIRFIELD*     PTCLDY    28  26  89 N3        30.29S
HARRISBURG*    MOCLDY    32  28  86 NE8       30.29S WCI  25
ROBINSON*      CLOUDY    27  23  84 N8        30.32S WCI  19
CARMI*         MOCLDY    31  28  92 NE6       30.29F WCI  25
$$

ABBREVIATIONS USED IN REMARKS
   TC - TEMPERATURE IN CELSIUS
  WCI - WIND CHILL INDEX
   HX - HEAT INDEX
  VSB - VISIBILITY
$$



USA.gov is the U.S. government's official web portal to all federal, state and local government web resources and services.